Temperature
29 29 29 29 29 29 29 29 30 30 30 30 30 29 28 27 27 26 25 24 24 23 22 22 21 20 20 20 20 20 19 19 19 19 19 19 19 19 19 18 18 18 18 18
27 28 28 28 29 28 28 29 29 29 30 30 29 28 27 27 26 25 25 24 23 23 22 21 21 21 20 20 20 20 19 19 19 19 19 19 19 19 19 18 18 18 18 18
27 27 27 27 28 28 28 29 29 29 29 29 28 28 27 25 25 25 24 24 23 22 22 21 21 21 20 20 20 20 19 19 19 19 19 19 19 19 19 19 18 18 18 18
26 26 25 28 29 29 28 28 29 28 28 28 28 26 25 24 24 24 24 23 22 22 22 21 21 21 20 20 20 19 19 19 19 19 19 19 19 19 19 19 19 19 18 18
26 26 26 27 27 28 27 27 28 28 28 27 26 26 25 24 24 23 23 22 22 22 22 21 21 21 20 20 20 19 19 19 19 19 19 19 19 19 19 18 19 18 18 18
25 25 25 27 27 27 27 26 27 27 26 26 26 27 27 23 23 22 22 22 21 21 21 21 21 20 20 20 20 19 19 19 19 19 19 19 19 19 18 18 18 18 18 18
24 25 26 26 26 26 25 26 25 25 25 25 25 25 23 22 22 21 21 21 21 20 20 20 20 20 20 19 19 19 19 19 19 19 19 18 18 18 18 18 18 18 18 18
24 24 25 25 25 25 25 23 23 23 23 23 22 21 21 21 21 21 20 20 20 20 20 20 19 19 19 19 19 19 19 19 18 18 18 18 18 18 18 18 18 18 17 17
24 24 23 23 23 22 22 22 22 22 22 21 21 21 20 20 20 20 20 20 19 19 19 19 19 19 19 19 19 18 18 18 18 18 18 18 18 18 18 18 18 18 17 17
22 23 22 22 21 21 21 21 21 21 21 20 20 20 20 19 19 19 19 19 19 19 19 19 19 18 18 18 18 18 18 18 18 18 18 17 17 17 17 17 17 17 17 17
21 22 21 21 20 20 20 20 20 20 20 20 20 20 19 19 19 19 18 18 18 18 18 18 18 18 18 18 18 18 18 18 18 17 17 17 17 17 17 17 17 17 17 17
22 21 22 21 20 19 19 19 19 19 19 19 19 19 19 18 18 18 18 18 18 18 18 18 18 18 18 18 18 18 17 17 17 17 17 17 17 17 17 17 17 17 17 16
19 19 20 19 19 19 19 19 19 19 19 18 18 18 18 18 18 18 17 17 17 17 17 17 17 17 17 17 17 17 17 17 17 17 17 17 17 17 17 17 17 16 16 16
17 17 18 18 18 18 18 18 18 18 18 18 18 17 17 17 17 17 17 17 17 17 17 17 16 16 16 16 16 16 16 17 17 17 17 17 17 17 17 17 17 16 16 16
17 17 18 17 17 17 17 18 18 18 17 17 17 17 17 17 17 16 16 16 16 16 16 16 16 16 16 16 16 16 16 16 16 16 16 16 16 16 17 16 16 16 16 16
17 17 17 17 17 17 17 17 17 17 17 17 17 16 16 16 16 16 16 16 16 16 16 16 16 15 16 15 15 16 16 16 16 16 16 16 16 16 16 16 16 16 16 15
16 16 17 17 17 17 17 17 17 17 17 16 16 16 16 15 15 15 15 15 15 15 15 15 15 15 15 15 15 15 16 16 16 16 16 16 16 16 16 16 16 15 15 15
16 16 16 16 17 17 16 16 16 16 16 16 16 15 15 15 15 15 15 15 15 15 15 15 15 15 15 15 15 15 15 15 15 15 15 15 15 15 15 15 15 15 15 15
15 15 16 16 16 16 16 16 16 16 15 15 15 15 15 15 14 14 14 14 14 14 15 15 15 15 15 15 15 15 15 15 15 15 15 15 15 15 15 15 15 14 14 14
15 15 15 15 15 15 15 15 15 15 15 15 15 14 14 14 14 14 14 14 14 14 14 14 14 14 14 15 14 15 15 15 15 14 14 14 14 14 14 14 14 14 14 13
15 15 15 15 15 15 15 15 15 15 14 14 14 14 14 14 14 14 14 14 14 14 14 14 14 14 14 14 14 14 14 14 14 14 14 14 14 14 14 13 13 13 13 13
14 14 14 14 14 14 14 14 14 14 14 14 14 14 14 13 14 14 14 14 14 14 14 14 14 14 14 14 14 14 14 14 14 14 14 13 13 13 13 13 13 13 12 12
13 13 14 14 14 14 14 14 13 13 13 13 13 13 13 13 14 14 14 14 13 13 13 13 13 14 14 13 13 13 13 13 13 13 13 13 13 13 13 13 12 12 12 12
13 13 13 13 13 13 13 13 13 13 13 13 13 13 13 13 13 14 13 13 13 13 13 13 13 13 13 13 13 13 13 13 13 13 13 13 12 12 12 12 12 12 11 11
12 12 12 12 13 13 13 13 13 12 13 13 13 12 13 13 13 13 13 13 13 13 13 13 12 12 12 12 12 12 12 12 12 12 12 12 12 12 11 11 11 11 10 10
12 12 12 12 12 12 13 13 13 13 13 13 13 13 13 12 12 12 12 12 12 12 12 12 12 12 11 12 11 11 11 11 11 11 11 11 11 11 10 10 10 10 10 9
12 12 12 12 12 12 12 12 12 12 12 12 12 12 12 12 12 12 12 12 11 11 11 11 11 11 11 11 11 11 11 11 11 10 10 10 10 10 10 9 9 9 9 9
Wind_Speed
12 9 10 13 14 15 17 15 14 12 12 10 7 5 4 5 5 5 6 7 8 8 8 8 9 10 10 10 11 11 11 10 10 9 8 7 7 7 7 6 6 6 6 6
12 12 12 14 15 16 17 16 15 14 12 8 6 5 5 5 6 6 6 7 8 8 8 9 9 9 10 10 11 11 11 10 9 9 9 8 8 7 7 7 7 6 7 7
12 11 12 16 16 16 16 15 15 15 11 6 7 7 6 5 5 5 6 6 7 8 8 9 9 9 10 10 10 10 10 10 9 9 9 9 9 8 8 7 7 7 7 7
10 10 16 9 7 11 13 13 12 11 9 8 7 6 5 4 5 5 5 6 6 6 7 8 8 8 9 10 10 11 10 10 10 10 9 9 8 8 8 7 7 7 7 7
11 14 13 8 8 10 12 12 11 11 9 7 5 6 5 4 4 4 4 4 5 5 6 6 7 7 8 9 9 10 10 10 9 10 9 9 9 8 8 7 7 7 7 7
11 14 14 9 6 6 9 12 9 9 9 7 7 9 5 2 2 2 2 3 3 4 4 5 6 7 7 8 9 9 9 9 9 9 9 9 8 8 7 7 7 7 6 7
15 14 10 4 5 7 11 6 4 5 6 7 6 3 1 1 2 2 2 2 3 4 4 4 5 6 6 7 8 8 8 8 8 8 8 8 7 7 7 7 7 7 7 7
13 15 10 4 6 8 3 1 2 4 5 5 3 2 1 1 2 2 2 3 3 4 3 3 4 5 6 6 7 6 7 7 7 7 7 7 7 7 7 7 7 7 7 7
8 7 1 3 4 2 2 3 3 3 4 4 4 4 2 1 2 3 3 3 3 4 3 3 4 5 5 4 5 6 6 7 7 7 6 6 7 7 7 7 7 7 7 7
6 6 5 4 4 3 3 3 3 3 3 4 5 4 3 2 2 2 2 2 3 3 3 3 3 3 4 3 4 5 6 6 7 7 7 6 6 7 7 7 7 7 7 7
9 7 6 6 5 4 3 3 2 2 3 4 4 4 3 2 3 3 2 2 2 2 2 2 2 2 3 3 4 5 6 6 6 6 6 6 6 5 7 5 5 5 6 6
8 7 6 5 5 4 4 3 2 2 2 2 3 3 3 3 3 3 3 2 2 2 2 2 1 1 2 3 4 5 5 5 5 5 5 6 6 5 3 4 3 4 4 5
7 6 5 5 4 5 4 4 3 3 3 2 2 3 3 3 3 3 3 2 2 1 1 1 1 1 1 2 3 4 5 5 5 5 5 5 6 6 6 5 5 6 7 6
6 6 6 6 5 4 4 4 3 3 2 2 2 3 3 3 4 4 3 2 2 1 1 1 1 1 1 2 3 4 5 5 5 5 5 5 5 5 5 5 5 5 6 7
8 8 7 5 5 5 4 4 4 3 3 3 3 3 3 3 3 3 3 2 2 1 1 1 1 1 1 2 3 4 4 4 4 4 5 5 5 5 5 5 4 4 4 4
7 7 8 7 7 6 6 6 5 4 3 3 3 3 3 4 3 3 3 2 1 1 1 1 1 1 1 2 3 3 4 5 5 5 5 5 5 4 4 4 4 4 4 4
8 9 9 8 8 7 6 6 5 4 3 4 4 4 4 4 3 3 2 1 1 1 2 2 2 2 2 3 3 4 4 3 5 5 5 4 4 4 4 4 4 5 5 3
10 9 9 8 7 6 6 5 5 4 4 4 4 5 5 4 3 3 2 2 2 2 2 3 2 3 3 3 4 4 3 3 4 4 4 3 4 4 4 5 5 5 4 2
9 9 8 7 7 6 6 5 5 4 4 4 5 5 4 4 3 3 3 3 4 4 3 3 3 4 4 3 4 3 4 4 4 4 3 4 4 5 5 4 4 4 4 3
8 8 7 6 6 6 6 6 6 5 5 5 5 5 4 3 3 3 3 4 5 4 3 3 4 4 4 3 4 4 4 4 4 4 4 4 4 4 4 4 4 4 4 4
6 6 6 6 6 5 5 4 4 4 4 4 5 5 4 3 3 3 4 4 3 2 2 3 4 3 3 2 4 3 3 3 3 3 3 3 3 3 4 4 4 4 4 3
4 5 5 5 4 3 3 3 3 4 4 4 4 4 4 4 4 3 3 3 2 1 2 3 2 1 1 3 3 2 2 3 3 3 3 3 3 3 4 4 4 3 3 3
3 4 4 4 4 4 3 3 3 3 4 4 4 4 4 4 3 3 3 2 2 1 2 2 2 2 1 3 2 2 2 3 3 3 3 3 3 3 4 4 3 3 3 3
3 3 3 3 3 3 3 2 3 3 4 4 4 4 3 3 3 3 2 0 0 1 2 2 3 1 4 2 2 2 2 3 3 2 3 2 3 3 4 4 4 3 3 3
2 2 3 3 3 3 3 3 3 3 4 3 3 3 4 4 3 2 1 1 1 1 1 2 3 3 3 2 2 2 2 2 2 3 3 3 4 4 3 3 3 3 3 3
2 3 3 3 3 3 3 3 3 3 3 3 3 3 2 2 2 1 1 1 1 1 1 1 1 2 2 2 2 2 2 2 2 3 3 3 4 4 3 3 3 3 2 2
3 3 3 3 3 3 3 3 3 4 4 3 3 2 2 2 2 2 2 2 1 1 1 1 1 1 1 1 1 1 2 2 2 2 3 3 3 3 2 2 2 1 1 1
Wind_Direction
238 237 225 224 222 220 231 241 249 249 249 244 246 246 228 210 197 192 188 190 188 187 182 184 186 189 191 192 190 189 191 194 193 193 193 195 198 200 202 208 212 210 212 215
229 227 227 234 230 226 231 240 247 253 250 248 241 230 216 207 197 197 196 195 194 192 188 188 186 188 189 190 188 188 192 195 192 191 194 196 198 200 202 207 214 213 215 219
226 219 227 232 227 225 228 233 241 246 249 236 232 219 212 209 209 210 205 201 198 196 194 193 191 188 190 189 187 190 194 194 192 193 196 199 201 200 205 207 210 213 218 222
225 214 228 229 220 229 234 237 240 250 250 241 234 228 220 215 219 220 215 211 204 200 195 193 189 188 189 188 188 191 192 194 195 196 199 200 204 206 208 209 209 212 217 221
223 224 230 227 223 225 229 237 239 242 239 234 222 217 211 213 219 219 216 213 202 199 194 190 189 187 185 189 191 192 194 196 198 200 201 201 204 207 208 210 211 213 213 216
225 231 231 220 205 219 232 236 225 227 228 222 212 227 212 194 214 216 211 200 190 190 186 183 186 183 183 188 194 197 196 196 198 200 203 205 203 205 206 209 212 215 213 216
226 233 235 223 191 192 221 230 183 209 217 221 227 261 315 221 219 224 197 192 184 184 183 181 180 180 186 193 198 198 193 194 198 201 205 205 200 203 206 210 211 216 219 222
224 231 229 182 187 213 233 148 192 213 219 215 211 222 258 219 217 188 168 174 172 170 173 175 176 181 189 197 196 192 194 196 196 200 208 201 201 206 209 212 212 216 220 228
230 234 223 190 203 217 229 217 215 222 209 199 200 209 217 199 169 158 160 163 164 161 160 167 173 185 194 199 193 192 195 199 200 201 209 207 202 203 206 211 220 224 225 229
241 232 229 225 222 226 234 221 218 213 205 197 197 200 193 176 146 133 151 153 154 159 162 168 177 189 200 201 194 195 197 200 200 202 206 207 213 215 219 221 223 228 233 235
234 233 226 228 229 226 228 219 204 201 204 197 188 189 185 173 148 134 131 139 156 161 162 165 168 182 193 202 198 200 203 204 205 206 209 208 214 225 229 232 237 240 239 241
241 227 230 216 215 214 208 203 195 183 184 193 194 193 187 158 140 134 133 131 143 152 157 159 166 189 208 211 204 205 204 204 209 208 205 213 210 216 223 236 210 225 252 264
254 256 249 227 221 217 217 212 210 211 210 200 204 176 158 143 134 129 120 118 129 145 159 170 189 204 218 224 212 211 216 212 216 217 214 220 221 221 222 219 206 212 226 234
243 238 230 224 222 218 213 211 212 213 214 204 174 157 149 140 135 131 128 132 132 135 152 169 185 231 257 237 219 219 226 215 220 223 225 229 234 235 232 230 229 233 216 212
236 234 227 220 221 216 211 208 202 192 177 168 162 158 151 148 142 139 130 130 126 127 140 187 212 261 273 254 236 232 236 230 223 231 232 233 239 244 242 241 246 246 239 208
236 226 218 215 212 208 205 197 192 187 183 178 173 166 156 149 145 146 141 136 142 162 196 223 248 278 276 263 251 244 239 232 226 231 233 231 236 242 245 244 245 249 255 245
235 223 216 213 208 202 197 198 198 198 192 187 184 171 161 160 164 168 168 170 206 233 236 243 264 280 276 271 263 254 244 228 225 238 238 238 241 248 255 259 258 257 263 248
247 244 238 231 217 207 201 203 202 201 194 190 185 178 177 183 190 193 199 212 234 246 248 252 263 267 267 268 263 260 251 240 235 246 251 250 258 261 259 255 259 262 267 251
239 238 237 232 228 219 211 207 205 206 201 190 183 183 185 191 199 211 218 234 246 247 250 259 247 247 253 266 270 247 242 237 236 243 250 243 247 254 257 257 261 267 270 271
225 222 221 220 221 217 213 210 205 201 200 192 189 188 189 197 207 222 233 246 255 267 249 244 246 252 251 242 259 250 246 243 244 245 249 255 262 266 266 268 267 270 274 276
216 210 205 207 210 209 206 205 196 194 194 189 191 198 203 208 212 224 239 254 254 259 249 217 230 239 242 256 250 255 257 259 259 260 260 262 268 271 271 269 271 270 272 275
201 198 193 188 190 194 194 195 193 195 201 205 207 208 211 218 224 232 247 268 268 258 256 254 260 37 342 278 259 271 274 279 281 279 275 272 272 275 278 275 271 272 273 275
162 166 169 172 176 179 184 194 200 209 214 214 215 220 230 241 249 252 257 255 263 264 269 291 51 83 276 261 268 273 278 279 279 278 280 278 274 278 279 279 278 275 269 270
154 157 163 169 173 180 192 206 216 222 222 219 221 227 235 244 247 252 277 125 151 265 287 67 105 187 254 256 265 266 274 279 279 282 282 280 277 272 271 270 273 279 277 274
181 189 189 195 210 218 213 211 216 219 224 224 227 229 239 247 253 266 274 279 160 212 248 130 161 221 250 280 284 288 283 293 299 295 286 286 283 278 277 280 279 276 277 277
232 237 236 231 236 237 231 227 226 225 229 233 237 235 235 239 242 244 239 236 235 210 244 212 190 223 258 287 296 298 305 305 290 286 294 290 285 286 280 277 277 282 286 289
227 229 226 227 228 229 230 230 230 232 231 228 233 230 224 227 229 235 242 244 240 229 214 205 220 263 304 330 338 330 326 327 327 320 311 305 303 299 294 284 276 271 274 282
Height
1471 1470 1472 1475 1477 1479 1480 1478 1481 1478 1476 1475 1476 1479 1483 1486 1489 1491 1493 1495 1497 1499 1501 1503 1506 1508 1510 1513 1515 1518 1520 1522 1524 1526 1527 1529 1530 1532 1533 1534 1535 1535 1536 1536
1476 1472 1473 1474 1473 1475 1477 1476 1475 1474 1474 1472 1476 1480 1483 1485 1487 1489 1491 1493 1495 1497 1499 1501 1503 1505 1507 1509 1512 1514 1516 1519 1521 1523 1524 1526 1527 1529 1530 1531 1532 1533 1533 1534
1476 1472 1474 1478 1469 1470 1471 1470 1472 1473 1471 1472 1476 1479 1482 1484 1486 1487 1489 1491 1493 1494 1496 1498 1500 1502 1504 1506 1508 1510 1513 1515 1517 1519 1521 1523 1524 1525 1526 1527 1528 1529 1530 1531
1474 1479 1488 1466 1461 1463 1466 1467 1467 1468 1470 1471 1475 1478 1481 1483 1484 1486 1487 1489 1490 1492 1493 1495 1497 1499 1501 1503 1505 1507 1509 1511 1513 1515 1517 1518 1520 1521 1522 1524 1525 1525 1526 1527
1473 1476 1471 1467 1463 1463 1467 1468 1466 1467 1469 1471 1474 1476 1478 1481 1482 1483 1485 1486 1487 1489 1491 1492 1494 1496 1498 1500 1502 1504 1505 1507 1509 1511 1512 1514 1515 1517 1518 1520 1521 1521 1522 1523
1472 1475 1475 1462 1459 1462 1466 1468 1465 1467 1469 1471 1472 1471 1473 1478 1479 1481 1483 1484 1485 1486 1488 1490 1492 1493 1494 1496 1498 1500 1501 1503 1505 1506 1508 1509 1510 1512 1515 1515 1516 1517 1518 1518
1469 1469 1460 1457 1460 1463 1472 1466 1465 1466 1469 1471 1471 1472 1475 1476 1478 1479 1480 1481 1483 1484 1485 1487 1489 1490 1491 1493 1495 1496 1498 1499 1501 1502 1503 1505 1506 1508 1510 1511 1512 1513 1513 1514
1465 1467 1464 1457 1460 1461 1462 1465 1465 1467 1469 1471 1472 1473 1474 1475 1476 1477 1478 1480 1481 1482 1483 1485 1486 1487 1488 1489 1491 1493 1495 1496 1497 1499 1501 1502 1502 1504 1505 1507 1508 1508 1508 1509
1458 1459 1459 1460 1461 1463 1464 1465 1466 1466 1468 1469 1470 1472 1473 1473 1474 1475 1477 1478 1479 1480 1481 1483 1484 1485 1485 1487 1488 1490 1491 1492 1494 1496 1497 1498 1499 1499 1500 1501 1503 1504 1505 1505
1459 1457 1459 1461 1461 1463 1463 1464 1465 1465 1466 1467 1468 1470 1471 1472 1472 1474 1475 1476 1477 1478 1479 1481 1482 1483 1483 1484 1485 1487 1488 1489 1490 1492 1493 1494 1495 1496 1497 1497 1497 1499 1500 1500
1458 1458 1459 1460 1461 1462 1462 1463 1463 1464 1465 1466 1467 1468 1469 1470 1471 1472 1474 1475 1476 1476 1478 1479 1480 1481 1481 1482 1483 1483 1484 1486 1487 1489 1490 1490 1491 1492 1492 1493 1493 1494 1494 1495
1453 1455 1456 1458 1459 1460 1461 1461 1462 1462 1463 1465 1465 1466 1467 1468 1469 1471 1472 1473 1474 1475 1476 1477 1477 1478 1478 1479 1480 1480 1481 1482 1484 1485 1486 1486 1487 1487 1487 1488 1489 1489 1489 1490
1456 1456 1456 1457 1458 1459 1460 1460 1461 1462 1462 1463 1464 1465 1466 1466 1467 1469 1470 1471 1472 1473 1474 1474 1475 1475 1476 1476 1476 1477 1478 1479 1480 1481 1482 1482 1483 1483 1484 1484 1484 1485 1485 1485
1455 1456 1455 1455 1456 1457 1458 1459 1459 1460 1460 1461 1462 1463 1464 1465 1466 1467 1469 1470 1471 1471 1472 1472 1473 1473 1473 1473 1474 1474 1475 1476 1477 1477 1478 1479 1479 1479 1480 1480 1479 1479 1479 1480
1453 1453 1453 1454 1454 1454 1455 1456 1456 1457 1458 1459 1460 1461 1462 1463 1464 1466 1467 1468 1469 1470 1470 1470 1470 1470 1471 1471 1471 1471 1472 1473 1473 1474 1474 1475 1475 1475 1475 1475 1475 1475 1475 1475
1450 1450 1451 1451 1452 1452 1453 1454 1454 1455 1457 1457 1458 1460 1461 1462 1463 1464 1465 1466 1467 1468 1468 1468 1468 1468 1468 1468 1468 1468 1468 1469 1469 1470 1471 1471 1471 1471 1471 1471 1471 1471 1471 1471
1448 1447 1448 1448 1449 1450 1451 1452 1453 1454 1455 1456 1457 1458 1459 1461 1462 1463 1464 1464 1465 1465 1466 1466 1466 1466 1466 1465 1466 1466 1466 1465 1466 1467 1467 1467 1467 1467 1467 1468 1467 1467 1468 1467
1444 1445 1445 1446 1446 1447 1448 1450 1451 1452 1453 1454 1455 1457 1458 1459 1460 1461 1461 1462 1463 1463 1464 1464 1464 1463 1463 1463 1463 1463 1462 1463 1462 1463 1463 1463 1463 1463 1464 1464 1464 1464 1463 1463
1440 1441 1442 1443 1444 1445 1446 1448 1449 1450 1451 1452 1453 1455 1456 1457 1458 1459 1460 1460 1461 1461 1461 1461 1461 1461 1461 1461 1461 1461 1461 1461 1460 1460 1460 1460 1460 1460 1460 1460 1460 1460 1459 1458
1437 1438 1438 1440 1442 1443 1444 1445 1446 1447 1448 1450 1451 1452 1453 1455 1456 1457 1458 1458 1459 1459 1458 1458 1458 1458 1458 1458 1458 1459 1459 1459 1458 1458 1458 1458 1457 1457 1457 1456 1456 1455 1455 1454
1433 1434 1435 1437 1439 1440 1441 1442 1443 1444 1445 1447 1448 1450 1451 1453 1454 1455 1455 1456 1456 1455 1455 1455 1455 1455 1456 1455 1455 1455 1455 1455 1455 1455 1454 1454 1454 1454 1453 1453 1453 1452 1451 1451
1431 1432 1433 1435 1437 1438 1440 1441 1442 1443 1444 1446 1447 1449 1450 1451 1452 1453 1453 1453 1453 1452 1452 1452 1453 1452 1452 1452 1452 1452 1452 1452 1452 1451 1451 1450 1450 1450 1451 1450 1449 1449 1448 1447
1430 1431 1433 1435 1437 1438 1439 1440 1441 1443 1444 1445 1446 1447 1448 1449 1450 1451 1451 1451 1451 1450 1450 1450 1449 1449 1449 1449 1449 1449 1449 1449 1448 1448 1447 1447 1447 1446 1447 1447 1446 1445 1445 1444
1430 1432 1433 1435 1436 1437 1438 1439 1440 1442 1443 1443 1444 1445 1446 1447 1448 1448 1448 1448 1448 1448 1448 1447 1447 1447 1446 1447 1446 1446 1446 1446 1445 1445 1444 1443 1443 1443 1443 1443 1442 1442 1441 1441
1430 1431 1432 1434 1435 1436 1437 1437 1438 1439 1441 1442 1442 1443 1444 1445 1445 1446 1446 1446 1445 1445 1445 1445 1444 1444 1444 1444 1444 1443 1443 1442 1442 1441 1441 1440 1440 1440 1439 1439 1438 1438 1438 1438
1429 1430 1431 1432 1433 1434 1435 1435 1436 1438 1439 1440 1440 1441 1442 1442 1442 1443 1443 1443 1443 1442 1443 1442 1442 1442 1442 1442 1441 1441 1440 1440 1439 1439 1438 1438 1437 1436 1436 1435 1435 1435 1435 1434
1427 1428 1429 1429 1430 1432 1432 1433 1434 1435 1436 1437 1438 1439 1439 1440 1440 1441 1441 1441 1441 1441 1440 1440 1441 1441 1440 1439 1439 1439 1438 1437 1436 1436 1435 1434 1433 1433 1432 1431 1431 1431 1431 1431